Regional Weather Roundup
Issued by NWS

Home | Current Version | Previous Version | Text Only | Print | Product List | Glossary Off
Versions: 1 2 3 4 5 6 7 8 9 10 11 12 13 14 15 16 17 18 19 20 21 22 23 24 25 26 27 28 29 30 31 32 33 34 35 36 37 38 39 40 41 42 43 44 45 46 47 48 49 50

977
ASUS45 KBOI 230410
RWRID

IDAHO REGIONAL WEATHER ROUNDUP
NATIONAL WEATHER SERVICE BOISE ID
1000 PM MDT SAT JUL 22 2017

NOTE: "FAIR" INDICATES FEW OR NO CLOUDS BELOW 12000 FEET
WITH NO SIGNIFICANT WEATHER AND/OR OBSTRUCTIONS TO VISIBILITY

IDZ012-014-230500-
SOUTHWEST IDAHO


CITY           SKY/WX    TMP DP  RH WIND       PRES   REMARKS
BOISE          CLEAR     83  37  19 CALM      30.01R
CALDWELL       CLEAR     81  47  30 SW3       29.98S
MOUNTAIN HOME  CLEAR     82  39  21 NW8       30.01
$$

IDZ016-017-230500-
SOUTHCENTRAL IDAHO


CITY           SKY/WX    TMP DP  RH WIND       PRES   REMARKS
BURLEY         CLEAR     69  50  50 S6        30.08R
JEROME         CLEAR     75  39  27 SW6       30.09R
TWIN FALLS     CLEAR     72  41  32 SW12      30.09R
$$

IDZ019>023-230500-
SOUTHEAST IDAHO


CITY           SKY/WX    TMP DP  RH WIND       PRES   REMARKS
IDAHO FALLS    CLEAR     67  56  67 CALM      30.14R
POCATELLO      CLEAR     70  33  25 S9        30.12R
REXBURG        CLEAR     73  46  38 CALM      30.15R
$$

IDZ006-010-011-018-031-032-230500-
CENTRAL IDAHO MOUNTAINS


CITY           SKY/WX    TMP DP  RH WIND       PRES   REMARKS
MCCALL         CLEAR     74  37  26 VRB7      30.17R
HAILEY         CLEAR     70  46  43 CALM      30.17R
STANLEY          N/A     61  35  37 VRB3      30.26R
SALMON         NOT AVBL
CHALLIS        CLEAR     76  33  21 NW8       30.14R
$$

IDZ002-004-006-007-026-230500-
NORTHERN IDAHO


CITY           SKY/WX    TMP DP  RH WIND       PRES   REMARKS
LEWISTON       CLEAR     86  47  25 NE5       30.01R
LOWELL           N/A     70  55  59 CALM      30.03R
COEUR D`ALENE  CLEAR     80  48  32 SE6       30.07R
MULLAN PASS    CLEAR     62  41  46 NW5       30.29S
$$




USA.gov is the U.S. government's official web portal to all federal, state and local government web resources and services.